Regional Weather Roundup
Issued by NWS Cleveland, OH

Home | Current Version | Previous Version | Text Only | Print | Product List | Glossary Off
Versions: 1 2 3 4 5 6 7 8 9 10 11 12 13 14 15 16 17 18 19 20 21 22 23 24 25 26 27 28 29 30 31 32 33 34 35 36 37 38 39 40 41 42 43 44 45 46 47 48 49 50

000
ASUS41 KCLE 280310
RWRCLE
OHIO REGIONAL WEATHER ROUNDUP
NATIONAL WEATHER SERVICE CLEVELAND, OH
1100 PM EDT THU AUG 27 2015

NOTE: "FAIR" INDICATES FEW OR NO CLOUDS BELOW 12,000 FEET WITH NO
SIGNIFICANT WEATHER AND/OR OBSTRUCTIONS TO VISIBILITY.

OHZ001>008-015>018-024>027-034-035-043-044-280400-
   NORTHWEST OHIO

CITY           SKY/WX    TMP DP  RH WIND       PRES   REMARKS
DEFIANCE       CLEAR     60  54  80 E5        30.18S
FINDLAY        CLEAR     62  55  77 E7        30.18S
TOLEDO EXPRESS CLEAR     56  55  97 SE3       30.18F
TOLEDO EXEC    CLEAR     60  53  77 E3        30.19F
LIMA           CLEAR     59  56  89 E7        30.18S
$$

OHZ009>014-019>023-028>033-038-089-280400-
   NORTHEAST OHIO

CITY           SKY/WX    TMP DP  RH WIND       PRES   REMARKS
CLE-HOPKINS    CLEAR     60  53  77 CALM      30.22R
CLE-LAKEFRONT  CLEAR     65  55  70 NW5       30.19S
CUY CO. ARPT   PTCLDY    57  55  94 CALM      30.21R
LORAIN-ELYRIA  CLEAR     55  53  93 CALM      30.21S
ASHTABULA      CLEAR     53  52  96 CALM      30.21R
AKRON-CANTON   CLEAR     58  52  80 NE7       30.21R
WOOSTER        CLEAR     57  53  86 N3        30.21R
MANSFIELD      MOCLDY    59  55  87 NE6       30.21R
YOUNGSTOWN     PTCLDY    56  53  90 CALM      30.21R
$$

OHZ042-051>053-060>062-070>072-077>081-280400-
  SOUTHWEST OHIO

CITY           SKY/WX    TMP DP  RH WIND       PRES   REMARKS
CINC-COVINGTON CLEAR     61  56  83 CALM      30.16S
CINC-LUNKEN    CLEAR     59  58  96 CALM      30.17R
HAMILTON       CLEAR     57  56  96 CALM      30.17S
DAYTON         PTCLDY    63  57  81 E6        30.17F
WRIGHT-PAT AFB CLEAR     62  58  85 CALM      30.16F
DAYTON GENERAL CLEAR     64  54  69 CALM      30.16S
WILMINGTON     CLEAR     57  55  93 SE3       30.18R
$$

OHZ036-037-039>041-045>050-054>059-063>069-073>076-082>088-280400-
  CENTRAL AND SOUTHEAST OHIO

CITY           SKY/WX    TMP DP  RH WIND       PRES   REMARKS
COLUMBUS       CLEAR     63  55  75 CALM      30.17R
OSU AIRPORT    CLEAR     64  55  72 CALM      30.17S
BOLTON FIELD   CLEAR     59  57  94 CALM      30.18S
RICKENBACK AFB CLEAR     60  56  85 CALM      30.17S
NEWARK         CLEAR     56  54  93 CALM      30.18R
MARION         CLEAR     59  55  87 NE7       30.19S
LANCASTER      CLEAR     55  53  93 CALM      30.18S
ZANESVILLE     PTCLDY    62  56  80 CALM      30.18R
NEW PHILLY     PTCLDY    57  54  89 CALM      30.20R
$$



USA.gov is the U.S. government's official web portal to all federal, state and local government web resources and services.